Time,TemperatureF,DewpointF,PressureIn,WindDirection,WindDirectionDegrees,WindSpeedMPH,WindSpeedGustMPH,Humidity,HourlyPrecipIn,Conditions,Clouds,dailyrainin,SolarRadiationWatts/m^2,SoftwareType,DateUTC
2013-04-01 00:02:00,24.0,21.0,-100.00,North,358,6.0,18.0,87,0.00,,,0.00,0.000000,,2013-04-01 05:02:00,
2013-04-01 00:12:00,23.0,17.0,-100.00,NNW,338,5.0,18.0,79,0.00,,,0.00,0.000000,,2013-04-01 05:12:00,
2013-04-01 00:33:00,23.0,17.0,-100.00,NNW,338,5.0,18.0,79,0.00,,,0.00,0.000000,,2013-04-01 05:33:00,
2013-04-01 00:43:00,23.0,17.0,-100.00,NNW,338,5.0,18.0,79,0.00,,,0.00,0.000000,,2013-04-01 05:43:00,
2013-04-01 00:53:00,23.0,17.0,-100.00,NNW,338,5.0,18.0,79,0.00,,,0.00,0.000000,,2013-04-01 05:53:00,
2013-04-01 01:02:00,23.0,17.0,-100.00,NNW,338,5.0,18.0,79,0.00,,,0.00,0.000000,,2013-04-01 06:02:00,
2013-04-01 01:12:00,21.0,15.0,-100.00,NNW,339,6.0,18.0,78,0.00,,,0.00,0.000000,,2013-04-01 06:12:00,
2013-04-01 01:34:00,21.0,15.0,-100.00,NNW,339,6.0,18.0,78,0.00,,,0.00,0.000000,,2013-04-01 06:34:00,
2013-04-01 01:43:00,21.0,15.0,-100.00,NNW,339,6.0,18.0,78,0.00,,,0.00,0.000000,,2013-04-01 06:43:00,
2013-04-01 01:53:00,21.0,15.0,-100.00,NNW,339,6.0,18.0,78,0.00,,,0.00,0.000000,,2013-04-01 06:53:00,
2013-04-01 02:02:00,21.0,15.0,-100.00,NNW,339,6.0,18.0,78,0.00,,,0.00,0.000000,,2013-04-01 07:02:00,
2013-04-01 02:12:00,19.0,12.0,-100.00,NW,323,6.0,12.0,73,0.00,,,-99.99,0.000000,,2013-04-01 07:12:00,
2013-04-01 02:32:00,19.0,12.0,-100.00,NW,323,6.0,12.0,73,0.00,,,-99.99,0.000000,,2013-04-01 07:32:00,
2013-04-01 02:43:00,19.0,12.0,-100.00,NW,323,6.0,12.0,73,0.00,,,-99.99,0.000000,,2013-04-01 07:43:00,
2013-04-01 02:53:00,19.0,12.0,-100.00,NW,323,6.0,12.0,73,0.00,,,-99.99,0.000000,,2013-04-01 07:53:00,
2013-04-01 03:03:00,19.0,12.0,-100.00,NW,323,6.0,12.0,73,0.00,,,-99.99,0.000000,,2013-04-01 08:03:00,
2013-04-01 03:12:00,18.0,10.0,-100.00,NW,323,7.0,14.0,70,0.00,,,0.00,0.000000,,2013-04-01 08:12:00,
2013-04-01 03:32:00,18.0,10.0,-100.00,NW,323,7.0,14.0,70,0.00,,,0.00,0.000000,,2013-04-01 08:32:00,
2013-04-01 03:43:00,18.0,10.0,-100.00,NW,323,7.0,14.0,70,0.00,,,0.00,0.000000,,2013-04-01 08:43:00,
2013-04-01 03:53:00,18.0,10.0,-100.00,NW,323,7.0,14.0,70,0.00,,,0.00,0.000000,,2013-04-01 08:53:00,
2013-04-01 04:02:00,18.0,10.0,-100.00,NW,323,7.0,14.0,70,0.00,,,0.00,0.000000,,2013-04-01 09:02:00,
2013-04-01 04:12:00,17.0,10.0,-100.00,NW,306,5.0,9.0,73,0.00,,,0.00,0.000000,,2013-04-01 09:12:00,
2013-04-01 04:43:00,17.0,10.0,-100.00,NW,306,5.0,9.0,73,0.00,,,0.00,0.000000,,2013-04-01 09:43:00,
2013-04-01 04:53:00,17.0,10.0,-100.00,NW,306,5.0,9.0,73,0.00,,,0.00,0.000000,,2013-04-01 09:53:00,
2013-04-01 05:03:00,17.0,10.0,-100.00,NW,306,5.0,9.0,73,0.00,,,0.00,0.000000,,2013-04-01 10:03:00,
2013-04-01 05:12:00,16.0,9.0,-100.00,NW,324,5.0,12.0,72,0.00,,,0.00,0.000000,,2013-04-01 10:12:00,
2013-04-01 05:34:00,16.0,9.0,-100.00,NW,324,5.0,12.0,72,0.00,,,0.00,0.000000,,2013-04-01 10:34:00,
2013-04-01 05:43:00,16.0,9.0,-100.00,NW,324,5.0,12.0,72,0.00,,,0.00,0.000000,,2013-04-01 10:43:00,
2013-04-01 05:53:00,16.0,9.0,-100.00,NW,324,5.0,12.0,72,0.00,,,0.00,0.000000,,2013-04-01 10:53:00,
2013-04-01 06:03:00,16.0,9.0,-100.00,NW,324,5.0,12.0,72,0.00,,,0.00,0.000000,,2013-04-01 11:03:00,
2013-04-01 06:12:00,15.0,8.0,-100.00,NW,315,5.0,10.0,72,0.00,,,0.00,0.000000,,2013-04-01 11:12:00,
2013-04-01 06:33:00,15.0,8.0,-100.00,NW,315,5.0,10.0,72,0.00,,,0.00,0.000000,,2013-04-01 11:33:00,
2013-04-01 06:43:00,15.0,8.0,-100.00,NW,315,5.0,10.0,72,0.00,,,0.00,0.000000,,2013-04-01 11:43:00,
2013-04-01 06:53:00,15.0,8.0,-100.00,NW,315,5.0,10.0,72,0.00,,,0.00,0.000000,,2013-04-01 11:53:00,
2013-04-01 07:02:00,15.0,8.0,-100.00,NW,315,5.0,10.0,72,0.00,,,0.00,0.000000,,2013-04-01 12:02:00,
2013-04-01 07:12:00,16.0,8.0,-100.00,WNW,287,4.0,8.0,71,0.00,,,-99.99,16.000000,,2013-04-01 12:12:00,
2013-04-01 07:43:00,16.0,8.0,-100.00,WNW,287,4.0,8.0,71,0.00,,,-99.99,16.000000,,2013-04-01 12:43:00,
2013-04-01 07:53:00,16.0,8.0,-100.00,WNW,287,4.0,8.0,71,0.00,,,-99.99,16.000000,,2013-04-01 12:53:00,
2013-04-01 08:03:00,16.0,8.0,-100.00,WNW,287,4.0,8.0,71,0.00,,,-99.99,16.000000,,2013-04-01 13:03:00,
2013-04-01 08:12:00,22.0,10.0,-100.00,NW,313,5.0,11.0,59,0.00,,,-99.99,160.000000,,2013-04-01 13:12:00,
2013-04-01 08:43:00,22.0,10.0,-100.00,NW,313,5.0,11.0,59,0.00,,,-99.99,160.000000,,2013-04-01 13:43:00,
2013-04-01 08:53:00,22.0,10.0,-100.00,NW,313,5.0,11.0,59,0.00,,,-99.99,160.000000,,2013-04-01 13:53:00,
2013-04-01 09:03:00,22.0,10.0,-100.00,NW,313,5.0,11.0,59,0.00,,,-99.99,160.000000,,2013-04-01 14:03:00,
2013-04-01 09:12:00,23.0,10.0,-100.00,NW,321,7.0,15.0,58,0.00,,,0.00,295.000000,,2013-04-01 14:12:00,
2013-04-01 09:43:00,23.0,10.0,-100.00,NW,321,7.0,15.0,58,0.00,,,0.00,295.000000,,2013-04-01 14:43:00,
2013-04-01 09:53:00,23.0,10.0,-100.00,NW,321,7.0,15.0,58,0.00,,,0.00,295.000000,,2013-04-01 14:53:00,
2013-04-01 10:03:00,23.0,10.0,-100.00,NW,321,7.0,15.0,58,0.00,,,0.00,295.000000,,2013-04-01 15:03:00,
2013-04-01 10:12:00,22.0,15.0,-100.00,NNW,336,6.0,14.0,75,0.00,,,0.00,194.000000,,2013-04-01 15:12:00,
2013-04-01 10:43:00,22.0,15.0,-100.00,NNW,336,6.0,14.0,75,0.00,,,0.00,194.000000,,2013-04-01 15:43:00,
2013-04-01 10:54:00,22.0,15.0,-100.00,NNW,336,6.0,14.0,75,0.00,,,0.00,194.000000,,2013-04-01 15:54:00,
2013-04-01 11:03:00,22.0,15.0,-100.00,NNW,336,6.0,14.0,75,0.00,,,0.00,194.000000,,2013-04-01 16:03:00,
2013-04-01 12:12:00,29.0,11.0,-100.00,NW,320,10.0,23.0,46,-99.99,,,0.00,546.000000,,2013-04-01 17:12:00,
2013-04-01 12:32:00,29.0,11.0,-100.00,NW,320,10.0,23.0,46,-99.99,,,0.00,546.000000,,2013-04-01 17:32:00,
2013-04-01 12:42:00,29.0,11.0,-100.00,NW,320,10.0,23.0,46,-99.99,,,0.00,546.000000,,2013-04-01 17:42:00,
2013-04-01 12:53:00,29.0,11.0,-100.00,NW,320,10.0,23.0,46,-99.99,,,0.00,546.000000,,2013-04-01 17:53:00,
2013-04-01 13:02:00,29.0,11.0,-100.00,NW,320,10.0,23.0,46,-99.99,,,0.00,546.000000,,2013-04-01 18:02:00,
2013-04-01 13:12:00,33.0,4.0,-100.00,NW,314,11.0,23.0,29,0.00,,,0.00,788.000000,,2013-04-01 18:12:00,
2013-04-01 13:43:00,33.0,4.0,-100.00,NW,314,11.0,23.0,29,0.00,,,0.00,788.000000,,2013-04-01 18:43:00,
2013-04-01 13:53:00,33.0,4.0,-100.00,NW,314,11.0,23.0,29,0.00,,,0.00,788.000000,,2013-04-01 18:53:00,
2013-04-01 14:03:00,33.0,4.0,-100.00,NW,314,11.0,23.0,29,0.00,,,0.00,788.000000,,2013-04-01 19:03:00,
2013-04-01 14:12:00,34.0,6.0,-100.00,NW,324,10.0,26.0,30,0.00,,,0.00,706.000000,,2013-04-01 19:12:00,
2013-04-01 14:43:00,34.0,6.0,-100.00,NW,324,10.0,26.0,30,0.00,,,0.00,706.000000,,2013-04-01 19:43:00,
2013-04-01 14:53:00,34.0,6.0,-100.00,NW,324,10.0,26.0,30,0.00,,,0.00,706.000000,,2013-04-01 19:53:00,
2013-04-01 15:02:00,34.0,6.0,-100.00,NW,324,10.0,26.0,30,0.00,,,0.00,706.000000,,2013-04-01 20:02:00,
2013-04-01 15:12:00,32.0,4.0,-100.00,NW,308,12.0,21.0,30,0.00,,,0.00,676.000000,,2013-04-01 20:12:00,
2013-04-01 15:43:00,32.0,4.0,-100.00,NW,308,12.0,21.0,30,0.00,,,0.00,676.000000,,2013-04-01 20:43:00,
2013-04-01 15:52:00,32.0,4.0,-100.00,NW,308,12.0,21.0,30,0.00,,,0.00,676.000000,,2013-04-01 20:52:00,
2013-04-01 16:02:00,32.0,4.0,-100.00,NW,308,12.0,21.0,30,0.00,,,0.00,676.000000,,2013-04-01 21:02:00,
2013-04-01 16:12:00,32.0,3.0,-100.00,NW,310,11.0,25.0,28,0.00,,,0.00,600.000000,,2013-04-01 21:12:00,
2013-04-01 16:44:00,32.0,3.0,-100.00,NW,310,11.0,25.0,28,0.00,,,0.00,600.000000,,2013-04-01 21:44:00,
2013-04-01 16:53:00,32.0,3.0,-100.00,NW,310,11.0,25.0,28,0.00,,,0.00,600.000000,,2013-04-01 21:53:00,
2013-04-01 17:02:00,32.0,3.0,-100.00,NW,310,11.0,25.0,28,0.00,,,0.00,600.000000,,2013-04-01 22:02:00,
2013-04-01 17:12:00,29.0,4.0,-100.00,NW,313,11.0,25.0,34,0.00,,,0.00,472.000000,,2013-04-01 22:12:00,
2013-04-01 17:33:00,29.0,4.0,-100.00,NW,313,11.0,25.0,34,0.00,,,0.00,472.000000,,2013-04-01 22:33:00,
2013-04-01 17:43:00,29.0,4.0,-100.00,NW,313,11.0,25.0,34,0.00,,,0.00,472.000000,,2013-04-01 22:43:00,
2013-04-01 17:52:00,29.0,4.0,-100.00,NW,313,11.0,25.0,34,0.00,,,0.00,472.000000,,2013-04-01 22:52:00,
2013-04-01 18:02:00,29.0,4.0,-100.00,NW,313,11.0,25.0,34,0.00,,,0.00,472.000000,,2013-04-01 23:02:00,
2013-04-01 18:12:00,27.0,3.0,-100.00,NNW,339,11.0,22.0,35,0.00,,,0.00,303.000000,,2013-04-01 23:12:00,
2013-04-01 18:43:00,27.0,3.0,-100.00,NNW,339,11.0,22.0,35,0.00,,,0.00,303.000000,,2013-04-01 23:43:00,
2013-04-01 18:53:00,27.0,3.0,-100.00,NNW,339,11.0,22.0,35,0.00,,,0.00,303.000000,,2013-04-01 23:53:00,
2013-04-01 19:03:00,27.0,3.0,-100.00,NNW,339,11.0,22.0,35,0.00,,,0.00,303.000000,,2013-04-02 00:03:00,
2013-04-01 19:12:00,24.0,2.0,-100.00,NNW,327,6.0,17.0,38,0.00,,,0.00,65.000000,,2013-04-02 00:12:00,
2013-04-01 19:33:00,24.0,2.0,-100.00,NNW,327,6.0,17.0,38,0.00,,,0.00,65.000000,,2013-04-02 00:33:00,
2013-04-01 19:43:00,24.0,2.0,-100.00,NNW,327,6.0,17.0,38,0.00,,,0.00,65.000000,,2013-04-02 00:43:00,
2013-04-01 19:53:00,24.0,2.0,-100.00,NNW,327,6.0,17.0,38,0.00,,,0.00,65.000000,,2013-04-02 00:53:00,
2013-04-01 20:02:00,24.0,2.0,-100.00,NNW,327,6.0,17.0,38,0.00,,,0.00,65.000000,,2013-04-02 01:02:00,
2013-04-01 20:12:00,21.0,3.0,-100.00,West,280,3.0,10.0,45,0.00,,,0.00,1.000000,,2013-04-02 01:12:00,
2013-04-01 20:43:00,21.0,3.0,-100.00,West,280,3.0,10.0,45,0.00,,,0.00,1.000000,,2013-04-02 01:43:00,
2013-04-01 20:53:00,21.0,3.0,-100.00,West,280,3.0,10.0,45,0.00,,,0.00,1.000000,,2013-04-02 01:53:00,
2013-04-01 21:02:00,21.0,3.0,-100.00,West,280,3.0,10.0,45,0.00,,,0.00,1.000000,,2013-04-02 02:02:00,
2013-04-01 21:12:00,17.0,4.0,-100.00,SW,230,1.0,4.0,56,0.00,,,0.00,0.000000,,2013-04-02 02:12:00,
2013-04-01 21:43:00,17.0,4.0,-100.00,SW,230,1.0,4.0,56,0.00,,,0.00,0.000000,,2013-04-02 02:43:00,
2013-04-01 21:53:00,17.0,4.0,-100.00,SW,230,1.0,4.0,56,0.00,,,0.00,0.000000,,2013-04-02 02:53:00,
2013-04-01 22:02:00,17.0,4.0,-100.00,SW,230,1.0,4.0,56,0.00,,,0.00,0.000000,,2013-04-02 03:02:00,
2013-04-01 22:12:00,15.0,4.0,-100.00,WSW,248,2.0,4.0,62,0.00,,,0.00,0.000000,,2013-04-02 03:12:00,
2013-04-01 22:33:00,15.0,4.0,-100.00,WSW,248,2.0,4.0,62,0.00,,,0.00,0.000000,,2013-04-02 03:33:00,
2013-04-01 22:43:00,15.0,4.0,-100.00,WSW,248,2.0,4.0,62,0.00,,,0.00,0.000000,,2013-04-02 03:43:00,
2013-04-01 22:53:00,15.0,4.0,-100.00,WSW,248,2.0,4.0,62,0.00,,,0.00,0.000000,,2013-04-02 03:53:00,
2013-04-01 23:03:00,15.0,4.0,-100.00,WSW,248,2.0,4.0,62,0.00,,,0.00,0.000000,,2013-04-02 04:03:00,
2013-04-01 23:12:00,16.0,4.0,-100.00,WNW,290,2.0,4.0,58,0.00,,,0.00,0.000000,,2013-04-02 04:12:00,
2013-04-01 23:43:00,16.0,4.0,-100.00,WNW,290,2.0,4.0,58,0.00,,,0.00,0.000000,,2013-04-02 04:43:00,
2013-04-01 23:53:00,16.0,4.0,-100.00,WNW,290,2.0,4.0,58,0.00,,,0.00,0.000000,,2013-04-02 04:53:00,